Saint Paul, MN

5:43 AM CDT on August 25, 2016 (GMT -0500)
Saint Paul Downtown-Holman

Weather History for KSTP - October, 2012

Change the Weather History Date:

Saturday, October 6, 2012

  Actual Average Record
Temperature  
Mean Temperature 40 °F -  
Max Temperature 44 °F 62 °F 89 °F (2007)
Min Temperature 37 °F 40 °F 30 °F (2001)
Degree Days  
Heating Degree Days 24    
Moisture  
Dew Point 25 °F    
Average Humidity 59    
Maximum Humidity 76    
Minimum Humidity 40    
Precipitation  
Precipitation 0.00 in - - ()
Sea Level Pressure  
Sea Level Pressure 30.24 in    
Wind  
Wind Speed 12 mph (NW)    
Max Wind Speed 16 mph    
Max Gust Speed 23 mph    
Visibility 10 miles    
Events      
Averages and records for this station are not official NWS values.
T = Trace of Precipitation, MM = Missing Value Source: NWS Daily Summary

Daily Weather History Graph

Daily Weather History Graph

Search for Another Location

Airport or City:

Trip Planner

Search our weather history database for the weather conditions in past years. The results will help you decide how hot, cold, wet, or windy it might be!

Date:

Astronomy

Oct. 06, 2012 Rise Set
Actual Time 7:17 AM CDT 6:42 PM CDT
Civil Twilight 6:47 AM CDT 7:11 PM CDT
Nautical Twilight 6:13 AM CDT 7:45 PM CDT
Astronomical Twilight 5:39 AM CDT 8:19 PM CDT
Moon 10:47 PM CDT (10/6) 1:23 PM CDT (10/6)
Length of Visible Light 12h 24m
Length of Day
11h 25m
Waning Gibbous, 65% of the Moon is Illuminated
Oct 6
Waning Gibbous
Oct 8
Last Quarter
Oct 15
New
Oct 21
First Quarter
Oct 29
Full

Hourly Weather History & Observations

Time (CDT) Temp. Windchill Dew Point Humidity Pressure Visibility Wind Dir Wind Speed Gust Speed Precip Events Conditions
12:53 AM 37.9 °F 29.2 °F 26.1 °F 62% 30.16 in 10.0 mi NW 15.0 mph 23.0 mph N/A   Overcast
1:53 AM 37.9 °F 29.6 °F 27.0 °F 65% 30.17 in 10.0 mi NW 13.8 mph 20.7 mph N/A   Overcast
2:53 AM 37.0 °F 29.3 °F 28.0 °F 70% 30.17 in 10.0 mi WNW 11.5 mph 20.7 mph N/A   Overcast
3:53 AM 37.9 °F 29.2 °F 28.0 °F 68% 30.17 in 10.0 mi WNW 15.0 mph - N/A   Overcast
4:53 AM 37.0 °F 28.1 °F 28.9 °F 73% 30.19 in 10.0 mi NW 15.0 mph - N/A   Mostly Cloudy
5:23 AM 37.4 °F 28.2 °F 28.4 °F 70% 30.18 in 10.0 mi NW 16.1 mph 21.9 mph N/A   Overcast
5:50 AM 37.4 °F 28.9 °F 30.2 °F 75% 30.19 in 10.0 mi NW 13.8 mph - N/A   Overcast
5:53 AM 37.0 °F 28.5 °F 30.0 °F 76% 30.21 in 10.0 mi NW 13.8 mph - N/A   Overcast
6:41 AM 37.4 °F 28.2 °F 28.4 °F 70% 30.21 in 10.0 mi NW 16.1 mph - N/A   Mostly Cloudy
6:53 AM 37.0 °F 28.9 °F 28.9 °F 73% 30.22 in 10.0 mi NW 12.7 mph - N/A   Mostly Cloudy
7:53 AM 37.0 °F 28.9 °F 28.9 °F 73% 30.25 in 10.0 mi NW 12.7 mph - N/A   Overcast
8:53 AM 37.0 °F 28.9 °F 28.0 °F 70% 30.27 in 10.0 mi NNW 12.7 mph - N/A   Overcast
9:01 AM 37.4 °F 29.3 °F 28.4 °F 70% 30.26 in 10.0 mi NNW 12.7 mph - N/A   Overcast
9:28 AM 37.4 °F 29.8 °F 26.6 °F 65% 30.27 in 10.0 mi NNW 11.5 mph - N/A   Overcast
9:53 AM 39.0 °F 31.8 °F 27.0 °F 62% 30.28 in 10.0 mi NNW 11.5 mph - N/A   Mostly Cloudy
10:53 AM 39.9 °F 32.9 °F 24.1 °F 53% 30.30 in 10.0 mi NNW 11.5 mph 20.7 mph N/A   Overcast
11:53 AM 41.0 °F 33.1 °F 23.0 °F 49% 30.30 in 10.0 mi NW 15.0 mph - N/A   Overcast
12:53 PM 41.0 °F 33.9 °F 21.9 °F 47% 30.30 in 10.0 mi NNW 12.7 mph 20.7 mph N/A   Overcast
1:53 PM 43.0 °F 37.2 °F 21.0 °F 42% 30.29 in 10.0 mi North 10.4 mph - N/A   Overcast
2:53 PM 44.1 °F 39.0 °F 21.9 °F 42% 30.27 in 10.0 mi West 9.2 mph - N/A   Overcast
3:53 PM 44.1 °F 40.1 °F 21.0 °F 40% 30.26 in 10.0 mi NW 6.9 mph - N/A   Overcast
4:53 PM 43.0 °F 37.7 °F 21.9 °F 43% 30.25 in 10.0 mi North 9.2 mph - N/A   Overcast
5:53 PM 43.0 °F 38.2 °F 21.0 °F 42% 30.25 in 10.0 mi North 8.1 mph - N/A   Overcast
6:53 PM 42.1 °F 37.7 °F 21.0 °F 43% 30.26 in 10.0 mi NNW 6.9 mph - N/A   Overcast
7:53 PM 42.1 °F 40.2 °F 21.0 °F 43% 30.27 in 10.0 mi NW 3.5 mph - N/A   Overcast
8:53 PM 41.0 °F - 21.9 °F 47% 30.27 in 10.0 mi Calm Calm - N/A   Overcast
9:53 PM 41.0 °F - 23.0 °F 49% 30.27 in 10.0 mi Calm Calm - N/A   Overcast
10:53 PM 39.2 °F - 24.8 °F 56% 30.25 in 10.0 mi Calm Calm - N/A   Mostly Cloudy
11:53 PM 37.0 °F 33.3 °F 24.1 °F 59% 30.25 in 10.0 mi West 4.6 mph - N/A   Mostly Cloudy